This is the latest recevied weather packets stored in our database for station/object KB0RPJ. If no packets are shown the sender has not sent any weather packets the latest 10 day(s).
| Time | Temp. | Humidity | Pressure | Rain* | Wind** | Luminosity | Snow |
|---|---|---|---|---|---|---|---|
| 1777671019 | 17.78° C | 29% | 1015.6 hPa | 0 mm | - | 239 W/m² | - |
| 1777670705 | 17.78° C | 32% | 1015.8 hPa | 0 mm | - | 758 W/m² | - |
| 1777670405 | 17.22° C | 32% | 1015.8 hPa | 0 mm | - | 788 W/m² | - |
| 1777670110 | 17.22° C | 31% | 1015.9 hPa | 0 mm | - | 806 W/m² | - |
| 1777669805 | 17.78° C | 30% | 1015.9 hPa | 0 mm | - | 335 W/m² | - |
| 1777669520 | 17.78° C | 32% | 1016 hPa | 0 mm | - | 622 W/m² | - |
| 1777669205 | 17.78° C | 30% | 1016.1 hPa | 0 mm | - | 760 W/m² | - |
| 1777668906 | 17.22° C | 33% | 1016.1 hPa | 0 mm | - | 818 W/m² | - |
| 1777668607 | 17.22° C | 34% | 1016.3 hPa | 0 mm | - | 832 W/m² | - |
| 1777668305 | 16.67° C | 33% | 1016.2 hPa | 0 mm | - | 864 W/m² | - |
| 1777668005 | 17.22° C | 30% | 1016.3 hPa | 0 mm | - | 230 W/m² | - |
| 1777667705 | 17.22° C | 32% | 1016.3 hPa | 0 mm | - | 674 W/m² | - |
| 1777667404 | 17.22° C | 33% | 1016.3 hPa | 0 mm | - | 528 W/m² | - |
| 1777667105 | 17.78° C | 32% | 1016.4 hPa | 0 mm | - | 803 W/m² | - |
| 1777666805 | 17.22° C | 33% | 1016.4 hPa | 0 mm | - | 867 W/m² | - |
| 1777666504 | 17.22° C | 35% | 1016.4 hPa | 0 mm | - | 883 W/m² | - |
| 1777666205 | 16.67° C | 33% | 1016.5 hPa | 0 mm | - | 892 W/m² | - |
| 1777665905 | 16.67° C | 33% | 1016.6 hPa | 0 mm | - | 521 W/m² | - |
| 1777665604 | 16.67° C | 34% | 1016.6 hPa | 0 mm | - | 938 W/m² | - |
| 1777665304 | 16.11° C | 41% | 1016.7 hPa | 0 mm | - | 821 W/m² | - |
| 1777665005 | 15.56° C | 35% | 1016.7 hPa | 0 mm | - | 986 W/m² | - |
| 1777664705 | 16.11° C | 37% | 1016.6 hPa | 0 mm | - | 150 W/m² | - |
| 1777664405 | 16.11° C | 35% | 1016.7 hPa | 0 mm | - | 328 W/m² | - |
| 1777664110 | 16.67° C | 38% | 1016.7 hPa | 0 mm | - | 172 W/m² | - |
| 1777663806 | 16.67° C | 39% | 1016.6 hPa | 0 mm | - | 1002 W/m² | - |
* Rain latest hour (hover to see other rain measurements)
** Current wind speed in m/s (hover to see current wind gust speed)